• In Deutschland
  • Länderverzeichnis
  • Für 7 Tage
  • Wassertemperatur
  • Satellitenkarten
  • Wetterkarte
  • Widgets
  • user-avatar
    Anmelden

    Stündliche Wetter Smolan

    Heute, 20 August, Sonntag

    Zeit Temperatur Niederschläge Wind Luftdruck Luftfeuchtigkeit
    00:00 +16°C° 0 mm 2 m/S 658 mmHg 47%
    01:00 +16°C° 0 mm 2 m/S 657 mmHg 49%
    02:00 +16°C° 0 mm 2 m/S 657 mmHg 54%
    03:00 +15°C° 0 mm 2 m/S 657 mmHg 55%
    04:00 +15°C° 0 mm 2 m/S 657 mmHg 56%
    05:00 +14°C° 0 mm 2 m/S 657 mmHg 58%
    06:00 +17°C° 0 mm 2 m/S 657 mmHg 52%
    07:00 +20°C° 0 mm 1 m/S 658 mmHg 47%
    08:00 +22°C° 0 mm 1 m/S 658 mmHg 41%
    09:00 +24°C° 0 mm 1 m/S 659 mmHg 36%
    10:00 +26°C° 0 mm 2 m/S 659 mmHg 31%
    11:00 +27°C° 0 mm 2 m/S 659 mmHg 27%
    12:00 +27°C° 0 mm 2 m/S 659 mmHg 26%
    13:00 +28°C° 0 mm 2 m/S 659 mmHg 25%
    14:00 +28°C° 0 mm 3 m/S 658 mmHg 24%
    15:00 +28°C° 0 mm 2 m/S 658 mmHg 26%
    16:00 +27°C° 0 mm 2 m/S 657 mmHg 28%
    17:00 +26°C° 0 mm 2 m/S 657 mmHg 30%
    18:00 +24°C° 0 mm 2 m/S 656 mmHg 33%
    19:00 +22°C° 0 mm 1 m/S 656 mmHg 37%
    20:00 +19°C° 0 mm 1 m/S 655 mmHg 41%
    21:00 +19°C° 0 mm 1 m/S 655 mmHg 41%
    22:00 +19°C° 0 mm 1 m/S 655 mmHg 41%
    23:00 +17°C° 0 mm 2 m/S 655 mmHg 41%

    Morgen, 21 August, Montag

    Zeit Temperatur Niederschläge Wind Luftdruck Luftfeuchtigkeit
    00:00 +17°C° 0 mm 2 m/S 655 mmHg 43%
    01:00 +16°C° 0 mm 2 m/S 655 mmHg 44%
    02:00 +16°C° 0 mm 2 m/S 655 mmHg 46%
    03:00 +16°C° 0 mm 2 m/S 655 mmHg 47%
    04:00 +16°C° 0 mm 2 m/S 654 mmHg 48%
    05:00 +15°C° 0 mm 2 m/S 654 mmHg 50%
    06:00 +17°C° 0 mm 2 m/S 655 mmHg 48%
    07:00 +18°C° 0 mm 2 m/S 655 mmHg 47%
    08:00 +19°C° 0 mm 2 m/S 656 mmHg 46%
    09:00 +20°C° 0 mm 2 m/S 656 mmHg 45%
    10:00 +21°C° 0 mm 2 m/S 656 mmHg 44%
    11:00 +23°C° 0 mm 2 m/S 657 mmHg 43%
    12:00 +23°C° 0,1 mm 2 m/S 657 mmHg 44%
    13:00 +23°C° 0,1 mm 2 m/S 656 mmHg 45%
    14:00 +22°C° 0,1 mm 3 m/S 656 mmHg 46%
    15:00 +21°C° 0,2 mm 2 m/S 656 mmHg 50%
    16:00 +21°C° 0,2 mm 2 m/S 656 mmHg 53%
    17:00 +20°C° 0,2 mm 2 m/S 655 mmHg 56%
    18:00 +19°C° 0,1 mm 2 m/S 655 mmHg 62%
    19:00 +17°C° 0,1 mm 2 m/S 655 mmHg 68%
    20:00 +16°C° 0,1 mm 2 m/S 655 mmHg 74%
    21:00 +15°C° 0,1 mm 2 m/S 655 mmHg 76%
    22:00 +15°C° 0,1 mm 2 m/S 655 mmHg 78%
    23:00 +14°C° 0,1 mm 2 m/S 655 mmHg 80%

    übermorgen, 22 August, Dienstag

    Zeit Temperatur Niederschläge Wind Luftdruck Luftfeuchtigkeit
    00:00 +14°C° 0 mm 2 m/S 655 mmHg 81%
    01:00 +13°C° 0 mm 2 m/S 655 mmHg 81%
    02:00 +13°C° 0 mm 2 m/S 655 mmHg 82%
    03:00 +13°C° 0,1 mm 2 m/S 655 mmHg 80%
    04:00 +13°C° 0,1 mm 2 m/S 655 mmHg 78%
    05:00 +13°C° 0,1 mm 2 m/S 655 mmHg 76%
    06:00 +14°C° 0,1 mm 2 m/S 655 mmHg 71%
    07:00 +14°C° 0,1 mm 2 m/S 656 mmHg 66%
    08:00 +15°C° 0,1 mm 2 m/S 657 mmHg 61%
    09:00 +16°C° 0,1 mm 2 m/S 657 mmHg 54%
    10:00 +18°C° 0,1 mm 2 m/S 658 mmHg 48%
    11:00 +19°C° 0,1 mm 2 m/S 658 mmHg 41%
    12:00 +20°C° 0,1 mm 2 m/S 658 mmHg 40%
    13:00 +20°C° 0,1 mm 3 m/S 658 mmHg 40%
    14:00 +20°C° 0,1 mm 3 m/S 658 mmHg 40%
    15:00 +20°C° 0,1 mm 3 m/S 658 mmHg 39%
    16:00 +20°C° 0,1 mm 2 m/S 657 mmHg 39%
    17:00 +20°C° 0,1 mm 2 m/S 657 mmHg 39%
    18:00 +17°C° 0 mm 2 m/S 657 mmHg 45%
    19:00 +15°C° 0 mm 1 m/S 656 mmHg 51%
    20:00 +13°C° 0 mm 1 m/S 656 mmHg 57%
    21:00 +12°C° 0 mm 1 m/S 656 mmHg 57%
    22:00 +12°C° 0 mm 1 m/S 656 mmHg 57%
    23:00 +10°C° 0 mm 2 m/S 657 mmHg 58%

    23 August, Mittwoch

    Zeit Temperatur Niederschläge Wind Luftdruck Luftfeuchtigkeit
    00:00 +10°C° 0 mm 2 m/S 657 mmHg 58%
    01:00 +10°C° 0 mm 2 m/S 656 mmHg 58%
    02:00 +10°C° 0 mm 2 m/S 656 mmHg 58%
    03:00 +10°C° 0 mm 1 m/S 656 mmHg 59%
    04:00 +10°C° 0 mm 1 m/S 656 mmHg 61%
    05:00 +10°C° 0 mm 1 m/S 656 mmHg 63%
    06:00 +12°C° 0 mm 1 m/S 657 mmHg 58%
    07:00 +14°C° 0 mm 1 m/S 658 mmHg 54%
    08:00 +16°C° 0 mm 1 m/S 659 mmHg 49%
    09:00 +19°C° 0 mm 1 m/S 659 mmHg 43%
    10:00 +21°C° 0 mm 1 m/S 660 mmHg 38%
    11:00 +23°C° 0 mm 2 m/S 660 mmHg 32%
    12:00 +23°C° 0 mm 2 m/S 660 mmHg 31%
    13:00 +24°C° 0 mm 2 m/S 660 mmHg 29%
    14:00 +24°C° 0 mm 2 m/S 660 mmHg 28%
    15:00 +24°C° 0 mm 2 m/S 660 mmHg 29%
    16:00 +23°C° 0 mm 2 m/S 659 mmHg 29%
    17:00 +23°C° 0 mm 2 m/S 659 mmHg 30%
    18:00 +20°C° 0 mm 2 m/S 659 mmHg 37%
    19:00 +17°C° 0 mm 2 m/S 658 mmHg 44%
    20:00 +15°C° 0 mm 1 m/S 658 mmHg 51%
    21:00 +14°C° 0 mm 1 m/S 658 mmHg 50%
    22:00 +14°C° 0 mm 2 m/S 658 mmHg 49%
    23:00 +13°C° 0 mm 2 m/S 659 mmHg 47%

    24 August, Donnerstag

    Zeit Temperatur Niederschläge Wind Luftdruck Luftfeuchtigkeit
    00:00 +13°C° 0 mm 2 m/S 659 mmHg 48%
    01:00 +12°C° 0 mm 2 m/S 658 mmHg 48%
    02:00 +12°C° 0 mm 2 m/S 658 mmHg 49%
    03:00 +12°C° 0 mm 2 m/S 658 mmHg 50%
    04:00 +10°C° 0 mm 2 m/S 658 mmHg 51%
    05:00 +10°C° 0 mm 2 m/S 658 mmHg 52%
    06:00 +13°C° 0 mm 2 m/S 659 mmHg 48%
    07:00 +15°C° 0 mm 2 m/S 660 mmHg 44%
    08:00 +18°C° 0 mm 1 m/S 661 mmHg 40%
    09:00 +19°C° 0 mm 2 m/S 662 mmHg 36%
    10:00 +21°C° 0 mm 2 m/S 662 mmHg 32%
    11:00 +24°C° 0 mm 2 m/S 663 mmHg 28%
    12:00 +25°C° 0 mm 2 m/S 663 mmHg 26%
    13:00 +25°C° 0 mm 2 m/S 662 mmHg 24%
    14:00 +26°C° 0 mm 2 m/S 662 mmHg 22%
    15:00 +26°C° 0 mm 2 m/S 662 mmHg 22%
    16:00 +25°C° 0 mm 2 m/S 662 mmHg 22%
    17:00 +25°C° 0 mm 3 m/S 661 mmHg 22%
    18:00 +21°C° 0 mm 2 m/S 661 mmHg 27%
    19:00 +18°C° 0 mm 2 m/S 660 mmHg 31%
    20:00 +15°C° 0 mm 2 m/S 660 mmHg 36%
    21:00 +15°C° 0 mm 2 m/S 660 mmHg 36%
    22:00 +14°C° 0 mm 2 m/S 660 mmHg 37%
    23:00 +13°C° 0 mm 2 m/S 660 mmHg 38%

    25 August, Freitag

    Zeit Temperatur Niederschläge Wind Luftdruck Luftfeuchtigkeit
    00:00 +13°C° 0 mm 2 m/S 660 mmHg 40%
    01:00 +12°C° 0 mm 2 m/S 660 mmHg 41%
    02:00 +12°C° 0 mm 2 m/S 660 mmHg 43%
    03:00 +10°C° 0 mm 2 m/S 660 mmHg 44%
    04:00 +10°C° 0 mm 2 m/S 660 mmHg 46%
    05:00 +10°C° 0 mm 2 m/S 660 mmHg 48%
    06:00 +13°C° 0 mm 2 m/S 660 mmHg 46%
    07:00 +15°C° 0 mm 2 m/S 661 mmHg 44%
    08:00 +18°C° 0 mm 1 m/S 662 mmHg 42%
    09:00 +19°C° 0 mm 2 m/S 662 mmHg 38%
    10:00 +21°C° 0 mm 2 m/S 663 mmHg 34%
    11:00 +22°C° 0 mm 3 m/S 663 mmHg 30%
    12:00 +24°C° 0 mm 3 m/S 663 mmHg 28%
    13:00 +25°C° 0 mm 3 m/S 663 mmHg 26%
    14:00 +26°C° 0 mm 3 m/S 663 mmHg 25%
    15:00 +26°C° 0 mm 3 m/S 663 mmHg 25%
    16:00 +25°C° 0 mm 3 m/S 662 mmHg 26%
    17:00 +25°C° 0 mm 3 m/S 662 mmHg 27%
    18:00 +21°C° 0 mm 3 m/S 661 mmHg 34%
    19:00 +18°C° 0 mm 3 m/S 661 mmHg 41%
    20:00 +16°C° 0 mm 2 m/S 660 mmHg 48%
    21:00 +15°C° 0 mm 2 m/S 660 mmHg 52%
    22:00 +14°C° 0 mm 2 m/S 660 mmHg 57%
    23:00 +13°C° 0 mm 2 m/S 660 mmHg 62%
    Mehr zeigen